User: anonymous
Location: Young's Pond
(41.2695°N, 72.7766°W)
Time: 07:48:48
(UTC-04:00)
Language:

CZ-4B R/B - Orbit

View from above orbital plane
View from above orbital plane
View from above satellite
View from above satellite

Ground track
Ground track

The orbit data is extracted from the following two-line orbital elements,

1 29093U 06015B   14272.93763301  .00013636  00000-0  48443-3 0  4151
2 29093 097.5143 352.8497 0087549 252.4968 162.2981 15.25501201465546
Epoch (UTC): 29 September 2014 22:30:11
Eccentricity: 0.0087549
inclination: 97.5143°
perigee height: 429 km
apogee height: 549 km
right ascension of ascending node: 352.8497°
argument of perigee: 252.4968°
revolutions per day: 15.25501201
mean anomaly at epoch: 162.2981°
orbit number at epoch: 46554

The dashed part of the orbit path shows where the satellite is in the earth's shadow,  

DLR